Latest Weather Observations for Ivanhoe Airport

IDN60801

Issued at 7:19 pm EDT Wednesday 4 March 2015 (issued every 30 minutes, with the page automatically refreshed every 10 minutes)

About weather observations | Map of weather stations | Latest weather observations for NSW | Other Formats
Station Details ID: 049000 Name: IVANHOE AERODROME AWS Lat: -32.88 Lon: 144.31 Height: 100.0 m
Data from the previous 72 hours. | See also: Recent months at Ivanhoe Airport
Date/Time
EDT
Temp
°C
App
Temp
°C
Dew
Point
Rel
Hum
%
Delta-T
°C
Wind Press
QNH
hPa
Press
MSL
hPa
Rain
since 9 am
mm
Dir
 
Spd
km/h
Gust
km/h
Spd
kts
Gust
kts
04/07:00pm 31.2 26.5 7.6 23 13.0 SW 22 33 12 18 1011.2 1010.8 0.0
04/06:30pm 32.0 28.5 7.0 21 13.7 WSW 15 22 8 12 1011.1 1010.7 0.0
04/06:00pm 32.5 28.9 6.7 20 14.1 SW 15 26 8 14 1011.0 1010.6 0.0
04/05:30pm 32.4 28.4 6.6 20 14.0 WSW 17 24 9 13 1011.2 1010.8 0.0
04/05:00pm 31.9 27.4 6.9 21 13.6 WSW 20 33 11 18 1011.2 1010.8 0.0
04/04:30pm 32.5 28.3 5.9 19 14.3 S 17 24 9 13 1011.5 1011.1 0.0
04/04:00pm 31.9 28.4 5.4 19 14.1 S 13 24 7 13 1011.7 1011.3 0.0
04/03:30pm 30.8 27.3 5.3 20 13.5 W 13 22 7 12 1012.4 1012.0 0.0
04/03:00pm 31.4 28.0 5.8 20 13.7 SW 13 20 7 11 1012.8 1012.4 0.0
04/02:30pm 30.8 27.3 5.3 20 13.5 SSW 13 22 7 12 1013.0 1012.6 0.0
04/02:00pm 31.7 27.0 5.3 19 14.0 SSW 19 26 10 14 1013.5 1013.1 0.0
04/01:30pm 31.1 27.5 4.8 19 13.8 SW 13 22 7 12 1013.7 1013.3 0.0
04/01:00pm 30.0 25.1 3.9 19 13.4 SW 19 28 10 15 1014.1 1013.7 0.0
04/12:30pm 30.3 25.3 3.4 18 13.7 SSE 19 30 10 16 1014.5 1014.1 0.0
04/12:00pm 29.5 25.2 3.5 19 13.2 SSW 15 24 8 13 1014.9 1014.5 0.0
04/11:30am 29.7 25.7 2.9 18 13.5 SSW 13 26 7 14 1015.2 1014.8 0.0
04/11:00am 28.7 24.8 3.5 20 12.7 S 13 22 7 12 1015.4 1015.0 0.0
04/10:30am 27.6 23.8 4.0 22 11.9 S 13 20 7 11 1015.4 1015.0 0.0
04/10:00am 26.1 22.6 3.4 23 11.2 SSW 11 17 6 9 1015.2 1014.8 0.0
04/09:30am 24.6 20.7 3.3 25 10.4 S 13 19 7 10 1015.3 1014.9 0.0
04/09:00am 23.3 19.4 3.3 27 9.7 SSW 13 19 7 10 1014.9 1014.5 0.0
04/08:30am 21.8 17.5 3.0 29 9.0 SSW 15 24 8 13 1014.7 1014.3 0.0
04/08:00am 20.3 16.7 3.1 32 8.1 SSW 11 15 6 8 1014.3 1013.9 0.0
04/07:30am 19.2 15.6 3.0 34 7.6 SSW 11 13 6 7 1013.8 1013.4 0.0
04/07:00am 18.8 16.0 3.0 35 7.4 SW 7 9 4 5 1013.4 1013.0 0.0
04/06:30am 19.0 15.8 2.8 34 7.5 SSW 9 9 5 5 1012.9 1012.5 0.0
04/06:00am 19.6 16.4 2.9 33 7.8 SSW 9 9 5 5 1012.9 1012.5 0.0
04/05:30am 20.2 16.6 3.0 32 8.1 SSW 11 13 6 7 1012.7 1012.3 0.0
04/05:00am 20.2 16.6 3.0 32 8.1 SW 11 13 6 7 1012.7 1012.3 0.0
04/04:30am 20.2 17.3 2.5 31 8.3 SW 7 11 4 6 1012.2 1011.8 0.0
04/04:00am 20.6 17.3 2.4 30 8.5 SW 9 11 5 6 1012.5 1012.1 0.0
04/03:30am 21.5 17.9 2.7 29 8.9 SSW 11 13 6 7 1012.5 1012.1 0.0
04/03:00am 22.0 18.4 2.7 28 9.2 S 11 13 6 7 1012.6 1012.2 0.0
04/02:30am 22.3 18.6 2.4 27 9.4 SSW 11 13 6 7 1012.9 1012.5 0.0
04/02:00am 22.7 18.6 2.2 26 9.7 SSW 13 15 7 8 1013.2 1012.8 0.0
04/01:30am 22.8 19.4 1.8 25 9.9 SSW 9 11 5 6 1013.4 1013.0 0.0
04/01:00am 23.5 19.7 1.8 24 10.3 SSW 11 15 6 8 1013.5 1013.1 0.0
04/12:30am 24.6 20.9 2.1 23 10.8 S 11 15 6 8 1013.4 1013.0 0.0
04/12:00am 24.6 20.6 0.8 21 11.1 SSW 11 13 6 7 1013.5 1013.1 0.0
 
Date/Time
EDT
Temp
°C
App
Temp
°C
Dew
Point
Rel
Hum
%
Delta-T
°C
Wind Press
QNH
hPa
Press
MSL
hPa
Rain
since 9 am
mm
Dir
 
Spd
km/h
Gust
km/h
Spd
kts
Gust
kts
03/11:30pm 24.9 20.8 -0.3 19 11.6 SSW 11 13 6 7 1013.4 1013.0 0.0
03/11:00pm 25.1 21.6 -1.6 17 12.0 SSW 7 9 4 5 1013.5 1013.1 0.0
03/10:30pm 26.0 22.1 -1.7 16 12.5 S 9 11 5 6 1013.3 1012.9 0.0
03/10:00pm 26.2 22.2 -2.4 15 12.8 SSW 9 11 5 6 1013.2 1012.8 0.0
03/09:30pm 27.4 23.4 -2.4 14 13.4 S 9 11 5 6 1012.9 1012.5 0.0
03/09:00pm 27.7 23.5 -4.3 12 14.0 SSW 9 11 5 6 1012.9 1012.5 0.0
03/08:30pm 29.2 25.0 -4.3 11 14.8 S 9 13 5 7 1012.5 1012.1 0.0
03/08:00pm 30.5 26.1 -5.9 9 15.8 S 9 15 5 8 1012.3 1011.9 0.0
03/07:30pm 31.9 26.1 -8.1 7 16.9 S 15 22 8 12 1011.9 1011.5 0.0
03/07:00pm 32.5 26.4 -7.7 7 17.2 S 17 26 9 14 1011.9 1011.5 0.0
03/06:30pm 33.0 26.7 -5.6 8 17.2 S 19 26 10 14 1011.8 1011.4 0.0
03/06:00pm 33.2 27.7 -5.5 8 17.3 S 15 26 8 14 1011.7 1011.3 0.0
03/05:30pm 33.7 27.6 -3.5 9 17.3 SSW 19 32 10 17 1011.5 1011.1 0.0
03/05:00pm 33.9 28.0 -2.0 10 17.1 SSW 19 30 10 16 1011.7 1011.3 0.0
03/04:30pm 34.2 27.4 -1.7 10 17.2 SSW 24 35 13 19 1011.7 1011.3 0.0
03/04:00pm 34.0 28.9 -1.9 10 17.2 SSW 15 28 8 15 1012.0 1011.6 0.0
03/03:30pm 34.3 28.6 -0.4 11 17.0 WSW 19 28 10 15 1012.2 1011.8 0.0
03/03:00pm 33.8 27.7 -2.0 10 17.0 SW 20 30 11 16 1012.5 1012.1 0.0
03/02:30pm 32.8 27.5 -0.3 12 16.1 S 17 30 9 16 1012.8 1012.4 0.0
03/02:00pm 32.8 27.3 1.8 14 15.6 S 20 32 11 17 1012.9 1012.5 0.0
03/01:30pm 32.6 27.6 3.5 16 15.1 S 19 30 10 16 1013.2 1012.8 0.0
03/01:00pm 32.2 26.9 4.9 18 14.4 S 22 32 12 17 1013.6 1013.2 0.0
03/12:30pm 31.4 26.6 5.8 20 13.7 S 20 30 11 16 1014.1 1013.7 0.0
03/12:00pm 30.9 26.3 6.7 22 13.1 S 20 28 11 15 1014.4 1014.0 0.0
03/11:30am 30.3 25.9 7.5 24 12.4 S 20 32 11 17 1014.4 1014.0 0.0
03/11:00am 29.3 25.0 7.2 25 11.9 SSE 19 26 10 14 1014.5 1014.1 0.0
03/10:30am 27.7 23.2 7.0 27 11.0 SSE 20 28 11 15 1014.4 1014.0 0.0
03/10:00am 26.3 22.5 7.4 30 10.1 SSE 17 26 9 14 1014.1 1013.7 0.0
03/09:30am 24.2 20.3 6.9 33 9.0 S 17 24 9 13 1014.1 1013.7 0.0
03/09:00am 22.5 18.8 6.3 35 8.3 S 15 20 8 11 1014.0 1013.6 0.0
03/08:30am 20.7 17.4 6.6 40 7.2 S 13 17 7 9 1013.8 1013.4 0.0
03/08:00am 19.7 16.5 6.8 43 6.5 SSW 13 17 7 9 1013.4 1013.0 0.0
03/07:30am 18.3 15.8 6.5 46 5.9 S 9 11 5 6 1012.8 1012.4 0.0
03/07:00am 18.6 15.4 6.8 46 5.9 S 13 15 7 8 1012.3 1011.9 0.0
03/06:30am 18.5 15.2 6.4 45 6.0 S 13 20 7 11 1012.2 1011.8 0.0
03/06:00am 18.7 15.7 6.2 44 6.2 S 11 13 6 7 1011.7 1011.3 0.0
03/05:30am 19.2 16.6 6.0 42 6.6 S 9 11 5 6 1011.3 1010.9 0.0
03/05:00am 19.8 16.5 6.2 41 6.8 S 13 15 7 8 1011.0 1010.6 0.0
03/04:30am 20.2 16.8 5.8 39 7.2 S 13 17 7 9 1011.2 1010.8 0.0
03/04:00am 20.7 16.8 5.5 37 7.6 S 15 20 8 11 1011.3 1010.9 0.0
03/03:30am 20.9 17.3 4.9 35 7.9 SSW 13 19 7 10 1011.4 1011.0 0.0
03/03:00am 21.5 17.8 4.6 33 8.3 SSW 13 17 7 9 1011.6 1011.2 0.0
03/02:30am 22.6 18.9 4.6 31 8.9 S 13 20 7 11 1011.6 1011.2 0.0
03/02:00am 23.0 19.3 4.5 30 9.2 S 13 20 7 11 1011.9 1011.5 0.0
03/01:30am 22.8 18.8 2.8 27 9.6 SSW 13 17 7 9 1012.1 1011.7 0.0
03/01:00am 22.5 18.7 1.5 25 9.8 SSW 11 13 6 7 1012.0 1011.6 0.0
03/12:30am 23.5 19.5 0.6 22 10.6 SSW 11 15 6 8 1011.8 1011.4 0.0
03/12:00am 23.7 19.2 -0.6 20 11.0 SSW 13 15 7 8 1011.9 1011.5 0.0
 
Date/Time
EDT
Temp
°C
App
Temp
°C
Dew
Point
Rel
Hum
%
Delta-T
°C
Wind Press
QNH
hPa
Press
MSL
hPa
Rain
since 9 am
mm
Dir
 
Spd
km/h
Gust
km/h
Spd
kts
Gust
kts
02/11:30pm 24.3 20.1 -0.8 19 11.4 SSW 11 15 6 8 1011.8 1011.4 0.0
02/11:00pm 25.5 21.0 -0.5 18 12.0 S 13 17 7 9 1012.0 1011.6 0.0
02/10:30pm 25.5 21.2 -1.3 17 12.1 SSW 11 15 6 8 1011.9 1011.5 0.0
02/10:00pm 26.0 22.3 -0.1 18 12.1 S 9 11 5 6 1011.6 1011.2 0.0
02/09:30pm 27.4 24.4 1.0 18 12.6 S 6 9 3 5 1011.2 1010.8 0.0
02/09:00pm 28.6 24.8 2.0 18 13.1 SSW 11 13 6 7 1010.9 1010.5 0.0
02/08:30pm 27.9 26.0 0.6 17 13.0 CALM 0 0 0 0 1010.6 1010.2 0.0
02/08:00pm 30.3 28.6 1.7 16 14.2 CALM 0 0 0 0 1010.1 1009.7 0.0
02/07:30pm 32.6 29.7 1.7 14 15.5 SSW 6 11 3 6 1009.9 1009.5 0.0
02/07:00pm 32.5 29.3 0.6 13 15.7 SSE 7 13 4 7 1009.6 1009.2 0.0
02/06:30pm 32.4 28.8 0.5 13 15.7 S 9 17 5 9 1009.4 1009.0 0.0
02/06:00pm 33.2 29.5 0.0 12 16.3 SSE 9 17 5 9 1009.4 1009.0 0.0
02/05:30pm 33.4 30.1 2.3 14 15.9 WSW 9 19 5 10 1009.5 1009.1 0.0
02/05:00pm 33.0 30.3 3.9 16 15.2 SW 7 17 4 9 1009.5 1009.1 0.0
02/04:30pm 32.4 29.2 5.0 18 14.5 S 11 19 6 10 1009.6 1009.2 0.0
02/04:00pm 32.5 29.1 5.9 19 14.3 SSE 13 19 7 10 1009.9 1009.5 0.0
02/03:30pm 32.9 30.9 7.0 20 14.2 ENE 7 20 4 11 1010.3 1009.9 0.0
02/03:00pm 32.2 29.0 3.2 16 14.9 ENE 9 15 5 8 1010.9 1010.5 0.0
02/02:30pm 30.8 27.7 3.8 18 13.9 E 9 13 5 7 1011.4 1011.0 0.0
02/02:00pm 30.4 29.1 7.6 24 12.5 NNW 4 7 2 4 1011.8 1011.4 0.0
02/01:30pm 29.0 27.0 6.4 24 12.0 SE 6 9 3 5 1012.2 1011.8 0.0
02/01:00pm 28.8 26.6 7.9 27 11.4 WSW 9 13 5 7 1012.9 1012.5 0.0
02/12:30pm 27.8 25.7 8.1 29 10.7 ESE 9 15 5 8 1013.3 1012.9 0.0
02/12:00pm 26.6 24.6 8.6 32 9.8 SE 9 17 5 9 1013.7 1013.3 0.0
02/11:30am 25.4 23.2 8.0 33 9.3 SSE 9 13 5 7 1014.4 1014.0 0.0
02/11:00am 24.0 22.0 8.8 38 8.2 SE 9 19 5 10 1014.4 1014.0 0.0
02/10:30am 23.0 20.7 9.0 41 7.5 SE 11 19 6 10 1014.2 1013.8 0.0
02/10:00am 21.2 18.0 8.5 44 6.7 ESE 15 22 8 12 1014.7 1014.3 0.0
02/09:30am 19.9 16.4 7.3 44 6.5 SE 15 19 8 10 1014.5 1014.1 0.0
02/09:00am 18.5 14.6 7.0 47 5.8 SE 17 24 9 13 1013.9 1013.5 0.0
02/08:30am 16.7 12.7 6.5 51 5.0 SE 17 26 9 14 1014.1 1013.7 0.0
02/08:00am 15.5 11.8 6.2 54 4.5 SSE 15 22 8 12 1014.0 1013.6 0.0
02/07:30am 14.6 10.4 5.9 56 4.2 SSE 17 20 9 11 1013.8 1013.4 0.0
02/07:00am 14.5 10.3 5.8 56 4.2 SSE 17 20 9 11 1013.8 1013.4 0.0
02/06:30am 15.0 10.8 5.8 54 4.4 SSE 17 20 9 11 1013.5 1013.1 0.0
02/06:00am 15.4 11.6 5.9 53 4.6 SSE 15 20 8 11 1013.4 1013.0 0.0
02/05:30am 15.7 12.2 5.6 51 4.9 SSE 13 19 7 10 1013.3 1012.9 0.0
02/05:00am 16.6 12.4 5.6 48 5.3 SSE 17 24 9 13 1013.3 1012.9 0.0
02/04:30am 17.0 12.7 5.3 46 5.6 SE 17 22 9 12 1013.2 1012.8 0.0
02/04:00am 17.4 13.4 5.0 44 6.0 SE 15 19 8 10 1013.6 1013.2 0.0
02/03:30am 18.2 13.9 5.1 42 6.3 SE 17 22 9 12 1013.5 1013.1 0.0
02/03:00am 18.8 14.5 5.3 41 6.6 SE 17 22 9 12 1013.6 1013.2 0.0
02/02:30am 19.2 14.4 4.9 39 7.0 SE 19 24 10 13 1013.5 1013.1 0.0
02/02:00am 20.0 15.1 5.3 38 7.2 SE 20 26 11 14 1013.5 1013.1 0.0
02/01:30am 20.6 16.3 5.4 37 7.5 SE 17 24 9 13 1013.7 1013.3 0.0
02/01:00am 20.5 16.1 4.9 36 7.7 SE 17 24 9 13 1013.4 1013.0 0.0
02/12:30am 20.8 15.9 4.0 33 8.1 SSE 19 26 10 14 1013.3 1012.9 0.0
02/12:00am 21.6 17.0 3.8 31 8.6 SSE 17 22 9 12 1013.2 1012.8 0.0
 
Date/Time
EDT
Temp
°C
App
Temp
°C
Dew
Point
Rel
Hum
%
Delta-T
°C
Wind Press
QNH
hPa
Press
MSL
hPa
Rain
since 9 am
mm
Dir
 
Spd
km/h
Gust
km/h
Spd
kts
Gust
kts
01/11:30pm 22.0 17.7 3.2 29 9.0 S 15 19 8 10 1013.3 1012.9 0.0
01/11:00pm 22.6 18.3 3.2 28 9.4 S 15 20 8 11 1013.2 1012.8 0.0
01/10:30pm 23.1 18.8 3.1 27 9.7 S 15 19 8 10 1013.2 1012.8 0.0
01/10:00pm 23.9 19.5 2.7 25 10.2 SSE 15 20 8 11 1013.0 1012.6 0.0
01/09:30pm 24.7 20.3 2.8 24 10.6 S 15 20 8 11 1012.8 1012.4 0.0
01/09:00pm 25.3 20.5 2.7 23 11.0 SSE 17 26 9 14 1012.3 1011.9 0.0
01/08:30pm 26.0 21.2 2.7 22 11.4 S 17 26 9 14 1011.9 1011.5 0.0
01/08:00pm 26.7 21.4 1.9 20 12.0 S 19 32 10 17 1011.6 1011.2 0.0
01/07:30pm 27.9 21.4 0.6 17 13.0 S 24 35 13 19 1011.3 1010.9 0.0

Other Formats:

Comma delimited format used in spreadsheet applications
http://www.bom.gov.au/fwo/IDN60801/IDN60801.95697.axf

JavaScript Object Notation format (JSON) in row-major order
http://www.bom.gov.au/fwo/IDN60801/IDN60801.95697.json